Dewpoint
60 60 59 59 58 58 62 63 63 63 63 63 63 62 63 63 63 63 63 62 63 63 63 63 63 63 62 62 62 62 60 57 57 56 55 55 61 59 59 60 61 61 58 47 47 42 41 40 35 39 40 40 40 33 39 41 42 37 32 31 27 27 24 27 21 21 25 20 20 21 23 25 23 22 25 33 37 44 46 49 50 53 54 54 53 54 60 60
60 60 60 59 58 57 57 63 63 63 63 62 63 62 63 63 63 63 63 62 63 63 63 63 63 62 62 62 62 61 58 57 55 56 54 60 61 61 61 60 61 59 51 44 47 49 50 46 40 41 47 45 48 32 38 39 40 35 32 31 28 29 28 30 25 23 18 19 20 20 24 23 23 22 24 27 30 43 42 46 50 51 53 55 57 59 59 60
59 60 60 60 59 58 57 57 63 63 63 62 63 62 62 62 63 63 62 62 63 63 62 63 63 63 62 63 62 60 57 56 56 53 55 62 62 62 61 57 61 60 43 45 47 46 48 51 49 42 35 35 41 43 38 36 37 35 30 26 28 32 28 29 22 21 21 20 21 20 23 24 24 24 25 27 29 38 35 41 48 48 51 53 56 58 59 60
59 59 60 60 59 59 58 58 58 62 63 62 62 63 62 62 62 63 62 62 62 62 62 62 62 62 62 62 61 58 57 55 53 55 58 63 63 62 60 60 60 52 46 46 46 44 47 48 51 46 48 43 40 42 37 38 32 32 27 26 26 29 26 24 24 17 17 21 21 21 24 24 24 23 25 26 32 34 34 39 43 46 51 55 57 58 59 59
58 58 59 59 60 59 59 58 58 58 63 62 63 63 62 62 62 62 62 62 62 62 62 62 62 61 61 61 60 57 54 51 51 54 58 63 64 63 61 59 57 46 44 47 47 45 46 43 41 45 50 47 44 45 47 36 34 33 26 26 30 27 25 24 19 19 19 21 22 23 21 23 23 22 23 30 27 27 31 32 43 46 55 56 57 58 59 59
57 58 59 59 60 60 59 58 58 57 60 63 62 63 62 62 62 62 62 62 62 62 62 62 61 61 61 60 58 56 51 40 53 55 63 65 64 63 62 60 56 49 47 47 48 44 44 45 38 43 44 47 45 45 47 34 34 26 25 35 38 23 21 20 21 21 23 22 22 22 23 22 21 21 22 29 26 26 27 33 44 53 56 57 58 58 58 58
58 58 59 59 59 60 59 58 58 57 57 63 62 62 62 62 62 62 62 62 62 62 62 61 61 61 60 60 58 55 51 53 43 50 59 65 64 63 63 60 57 47 46 45 44 42 43 44 44 42 42 44 42 42 36 27 32 28 25 30 35 33 27 23 20 20 20 22 21 23 24 22 21 20 22 26 27 21 20 40 50 55 57 58 58 58 58 58
57 57 58 59 59 59 59 59 58 57 57 58 62 62 62 62 62 62 62 62 62 62 61 61 61 61 59 57 55 53 52 50 50 54 64 64 62 60 58 49 47 47 44 43 44 43 41 39 40 47 44 37 44 37 28 22 29 26 25 26 25 23 23 22 21 18 19 21 22 22 22 22 22 22 21 22 25 22 25 43 55 56 57 58 58 58 58 58
57 57 57 58 59 59 59 59 58 57 57 55 62 62 62 62 62 62 62 62 62 62 62 61 61 60 59 56 54 51 50 55 54 57 62 61 58 53 48 45 47 44 48 48 47 44 40 41 43 44 41 43 45 42 38 24 22 24 25 25 27 27 25 21 20 19 19 20 21 21 20 20 20 21 18 20 21 22 36 52 55 56 57 57 57 57 57 57
55 56 57 57 58 59 59 59 58 57 56 57 58 62 62 62 62 62 62 62 62 61 61 61 60 59 57 55 53 48 53 55 61 61 59 57 53 48 47 47 46 46 45 47 45 45 43 45 40 46 46 46 44 46 45 30 24 27 24 26 28 31 28 23 20 18 19 21 19 20 20 19 19 19 18 17 20 34 39 52 55 56 56 56 57 57 58 58
55 56 56 57 57 58 58 59 58 57 57 56 55 61 62 62 62 62 62 62 61 61 61 61 60 58 56 54 51 47 52 58 60 59 57 56 51 47 48 47 47 46 45 47 43 45 47 44 45 43 43 47 45 46 47 47 37 31 27 32 30 29 27 25 20 18 20 17 19 20 19 20 18 20 17 16 26 33 35 51 54 55 55 56 57 57 58 58
54 55 55 56 57 58 58 58 58 57 57 56 56 57 62 61 61 61 61 62 61 61 61 61 60 57 56 54 51 51 53 55 58 58 57 54 51 50 48 48 48 48 47 46 46 46 43 44 42 39 39 44 44 43 47 46 41 33 30 30 30 29 26 23 19 19 20 17 18 19 19 16 18 16 18 16 35 36 35 50 54 54 55 56 57 57 57 58
54 54 55 55 57 57 58 58 58 58 57 57 56 56 61 61 61 61 61 61 61 61 61 60 59 57 55 51 53 54 57 55 59 56 55 55 53 49 46 48 49 49 49 46 46 48 44 44 42 40 44 41 43 43 48 45 39 33 33 32 23 29 24 24 21 20 18 17 18 18 16 17 16 16 18 19 40 38 35 46 53 54 54 55 56 56 57 57
54 54 55 56 56 56 57 57 58 58 57 57 56 56 58 61 61 61 61 61 61 61 60 60 59 57 54 51 53 56 57 59 59 54 54 55 51 50 45 47 46 43 48 51 48 47 43 43 44 43 45 39 39 46 47 43 36 34 37 29 28 22 22 20 19 19 17 22 18 16 16 15 16 16 18 26 39 37 35 38 50 53 53 54 55 56 56 57
53 54 55 55 56 56 56 57 58 58 58 57 56 56 55 61 61 61 61 61 61 61 60 60 58 55 52 53 55 59 59 58 56 54 54 53 49 47 44 45 43 41 43 47 47 47 44 42 39 38 37 39 40 39 43 43 42 42 40 34 27 22 23 26 26 17 15 19 18 15 16 15 14 14 15 20 34 38 34 37 43 50 52 53 54 55 55 56
53 54 54 55 56 56 56 57 57 58 58 58 57 56 55 59 61 61 61 60 61 61 60 57 56 55 51 49 53 60 56 55 55 56 55 53 49 48 45 43 41 40 44 44 46 44 40 39 37 42 38 36 37 41 41 40 39 39 36 32 32 23 23 19 21 19 23 19 20 14 15 15 13 13 14 17 30 36 34 36 40 44 48 50 53 54 54 54
53 53 54 55 55 55 56 57 57 57 58 58 57 56 55 58 61 61 61 61 60 60 57 54 56 55 47 53 56 51 50 52 55 54 54 54 51 46 43 42 40 39 43 43 43 41 40 37 37 38 45 37 38 37 35 33 35 35 34 30 30 24 18 20 19 22 26 17 15 16 14 14 12 12 13 21 28 31 32 31 37 41 43 46 49 51 53 53
52 53 53 54 54 55 55 56 57 57 58 58 57 56 56 58 61 61 60 60 60 59 57 57 56 52 49 52 47 49 52 52 53 53 54 55 50 45 44 42 39 41 41 39 42 37 40 37 36 34 39 37 35 34 33 31 32 34 31 27 26 25 17 19 20 18 18 21 15 15 15 14 18 14 14 17 24 26 28 27 29 37 40 41 44 47 49 51
52 52 52 53 53 54 55 55 56 57 57 58 58 58 57 59 61 60 57 57 53 49 47 48 50 42 39 47 52 52 51 52 53 53 50 48 49 44 38 37 40 41 39 38 39 37 39 38 40 34 32 33 32 32 33 36 35 35 34 29 26 26 24 17 17 20 18 19 18 15 15 14 14 14 15 16 21 23 23 21 18 24 34 37 39 42 45 47
51 51 52 52 53 53 54 55 56 57 57 56 56 56 55 53 53 51 55 54 51 48 48 50 50 50 49 50 51 53 53 52 51 51 51 51 44 42 36 37 41 40 39 37 38 37 39 34 33 33 33 32 32 33 35 34 34 30 30 29 22 22 22 24 23 22 20 18 17 17 15 16 19 15 14 15 19 21 20 19 18 18 23 30 33 36 40 43
51 51 51 52 52 53 54 55 55 56 57 56 55 52 45 48 47 44 49 51 52 50 50 51 50 47 49 51 52 51 49 49 50 50 50 52 44 42 38 35 36 37 38 38 38 37 36 34 34 35 34 32 32 34 32 31 31 30 30 30 26 27 21 19 16 21 22 17 16 16 15 18 23 15 14 16 19 18 19 19 19 18 17 22 28 31 33 37
50 50 51 52 52 52 53 54 55 55 56 56 53 49 49 51 52 54 52 46 51 49 48 51 49 49 51 52 52 51 51 49 49 49 50 48 46 44 39 34 33 34 36 37 35 35 34 34 34 35 35 34 33 33 33 31 31 33 32 32 28 26 24 20 19 20 23 20 16 19 14 14 25 19 15 14 17 18 19 19 19 19 18 18 21 26 29 31
50 50 51 52 52 53 53 54 54 55 55 53 50 50 48 53 54 56 54 50 48 49 50 50 47 49 51 52 52 51 48 47 45 49 48 47 44 43 37 32 31 33 33 35 33 33 32 34 34 34 35 33 32 31 32 33 34 33 33 29 26 29 22 22 18 22 23 16 19 18 15 17 22 20 16 15 14 15 19 20 20 22 19 18 17 19 24 26
50 50 51 51 52 52 53 53 54 54 52 53 52 51 53 53 54 55 51 45 43 46 50 49 50 50 50 49 52 49 48 47 48 47 49 45 45 40 35 32 29 32 32 34 33 32 32 35 36 34 35 34 32 31 31 31 31 33 32 31 28 28 26 22 16 20 20 22 25 19 20 18 21 21 16 17 17 16 15 18 19 22 25 23 25 25 25 22
49 50 50 51 52 53 52 53 51 51 52 52 52 53 54 54 54 53 48 44 44 44 50 49 49 50 51 52 52 48 48 48 48 49 48 45 41 35 36 35 32 30 31 33 33 32 30 31 35 32 34 34 33 31 31 32 31 31 32 31 30 30 25 25 24 21 19 21 24 23 16 14 17 23 17 16 19 17 16 16 16 17 20 22 22 22 22 27
49 49 50 51 52 52 53 47 48 51 51 50 51 53 54 54 55 52 49 39 35 41 48 43 50 47 51 50 51 49 48 45 48 48 47 45 43 38 34 31 30 28 30 30 31 32 33 32 35 32 33 34 33 32 32 32 30 30 30 31 29 28 28 28 26 25 18 18 25 22 15 16 19 21 14 15 16 16 17 19 17 17 18 19 21 22 21 21
49 49 50 51 52 52 46 43 49 51 48 48 52 54 54 54 55 51 45 34 33 41 41 47 46 47 50 50 49 49 41 42 49 48 46 47 37 40 32 30 30 29 29 31 27 25 27 30 34 33 31 32 32 31 31 30 29 29 32 31 30 30 29 29 28 26 24 29 27 24 20 14 14 13 17 19 16 13 13 14 17 18 18 19 19 20 21 22
49 49 51 52 52 51 47 48 49 49 48 49 54 53 54 53 52 51 42 27 27 43 40 44 47 52 49 50 49 47 45 47 43 45 47 46 44 37 32 30 29 27 27 27 25 30 26 28 33 32 31 29 30 31 32 30 29 31 32 31 30 28 29 29 29 26 26 22 22 22 25 12 12 14 18 19 12 11 10 10 12 14 17 18 20 20 20 21
49 49 50 52 52 52 49 48 48 48 49 52 53 54 53 52 51 45 34 27 38 39 49 43 49 48 49 50 48 45 45 46 41 45 46 46 43 36 32 32 29 28 27 27 26 27 28 28 31 32 31 28 30 29 29 29 27 31 33 34 34 36 34 31 28 25 23 19 20 21 20 13 14 19 19 18 13 13 13 12 10 11 12 15 18 20 21 20
49 49 50 52 51 51 49 48 47 49 50 53 53 53 53 51 46 37 29 22 40 32 43 44 44 42 47 45 45 44 44 43 42 44 45 44 42 41 34 35 29 28 28 26 29 31 27 34 31 30 30 30 29 27 30 28 29 34 33 31 31 31 28 28 28 24 19 18 20 23 23 13 12 17 11 12 15 12 12 12 12 15 17 16 16 17 21 21
49 49 50 52 49 49 49 46 47 49 53 53 53 52 50 47 37 31 26 31 38 37 43 42 40 47 44 42 39 43 43 40 41 42 40 43 41 39 34 33 35 33 28 28 27 30 30 30 28 28 31 28 28 27 30 30 31 32 30 27 28 25 26 22 26 26 19 19 22 25 23 18 13 14 16 16 14 15 10 8 7 10 12 16 19 19 18 19
48 49 51 52 50 50 47 45 47 52 53 52 51 48 44 33 35 28 26 42 31 34 36 38 43 44 43 42 40 42 39 40 40 39 39 39 37 34 30 30 29 27 25 25 25 28 27 27 29 29 34 25 26 26 26 30 31 30 28 25 24 23 22 20 19 18 18 17 18 19 22 17 15 15 13 12 12 11 13 14 13 13 14 17 18 20 23 25
48 50 52 52 51 48 48 47 49 52 53 51 49 47 37 30 24 33 32 35 29 39 35 41 41 42 41 40 39 41 40 37 39 39 39 37 34 32 30 30 31 30 26 26 26 26 26 28 28 27 28 31 26 24 23 25 26 27 24 24 24 20 19 18 18 15 16 20 19 16 21 16 18 17 20 17 16 16 15 15 16 17 16 17 18 22 31 34
49 51 52 52 50 49 48 47 51 52 51 48 46 40 36 27 26 36 32 33 34 38 39 39 42 42 41 38 38 39 37 39 39 38 37 35 34 31 31 31 30 30 28 27 25 26 23 23 25 27 23 29 26 25 24 26 25 25 27 25 25 22 18 16 15 16 18 22 16 22 14 17 15 15 18 18 18 17 16 17 19 20 20 20 21 28 33 36
52 53 52 51 49 48 47 50 52 51 49 47 42 37 27 24 31 30 32 32 35 37 37 40 40 40 39 38 39 39 35 36 39 37 35 34 32 30 29 27 29 28 28 25 26 25 25 24 28 31 30 30 26 29 29 30 25 26 27 29 23 23 25 16 20 17 15 11 11 14 17 21 16 19 17 19 19 18 19 20 23 21 21 22 23 24 25 31
53 53 52 50 48 48 48 51 52 50 48 43 37 31 29 29 28 34 33 37 37 35 37 40 39 38 37 35 38 36 35 37 38 36 34 34 33 31 31 29 28 28 26 25 26 24 23 22 30 32 31 29 26 33 29 27 20 24 23 22 22 25 20 18 17 20 16 15 13 16 14 17 18 12 12 15 16 14 15 15 16 17 20 24 24 25 27 32
50 52 49 49 48 48 50 51 51 49 47 42 35 30 34 34 38 37 38 36 37 37 38 33 35 36 33 32 35 34 37 38 37 35 32 34 32 32 31 30 30 28 27 29 26 26 24 27 28 28 28 29 31 31 31 30 27 24 20 23 28 30 28 19 15 12 11 13 14 13 12 12 9 14 20 12 12 10 12 12 13 16 20 21 23 25 27 32
50 49 49 48 49 49 51 51 50 48 45 40 32 33 36 33 39 38 38 38 37 38 36 34 35 37 32 33 33 34 37 35 35 34 32 32 30 33 31 30 30 28 27 27 25 26 29 24 27 29 30 31 31 30 28 29 32 23 22 31 19 18 17 18 17 9 8 9 10 12 15 14 12 11 15 7 7 6 6 12 13 12 15 20 21 23 25 29
49 48 43 48 50 50 51 51 49 47 42 35 34 34 36 36 40 37 39 38 37 36 34 35 35 36 35 34 34 35 36 34 35 33 31 31 29 32 31 31 30 29 27 28 24 26 28 24 26 30 29 30 29 28 22 24 28 30 27 23 24 21 18 18 17 17 15 13 5 15 11 11 18 12 13 9 9 12 10 9 10 11 12 14 19 23 24 26
47 43 42 49 51 51 52 50 47 43 39 32 35 34 38 36 38 39 41 38 36 36 35 35 36 35 33 34 33 34 36 35 35 34 32 32 30 30 31 31 29 29 27 27 26 30 24 28 24 28 29 30 26 28 22 23 24 22 22 21 19 20 24 22 18 16 12 11 10 7 8 14 18 16 11 9 7 9 11 13 19 18 18 18 19 23 25 26
46 42 42 50 51 52 51 49 43 38 36 38 38 36 37 35 36 37 39 37 37 37 34 35 35 34 33 32 32 34 34 35 35 33 33 31 30 26 30 31 30 28 27 26 26 28 24 23 25 28 27 25 26 28 29 27 26 24 22 21 19 18 16 16 16 18 17 10 11 7 11 15 19 17 12 9 8 9 14 14 15 14 15 18 24 24 24 27
43 37 40 50 51 51 48 39 39 42 39 36 35 37 36 39 35 36 37 37 36 35 34 36 36 34 33 32 31 32 33 34 35 34 31 30 32 28 27 32 29 28 26 24 24 28 27 28 28 25 27 28 28 31 32 30 29 27 23 22 23 19 20 15 14 17 13 15 17 17 8 13 17 17 16 14 13 11 13 14 12 16 18 19 24 26 27 27
41 40 49 50 51 50 46 39 41 39 36 37 40 38 39 36 34 36 36 36 35 34 34 36 34 33 33 33 31 32 32 32 34 33 31 27 31 30 27 31 28 29 27 24 27 25 34 26 25 23 26 28 28 28 31 31 29 27 27 25 22 19 21 22 17 21 18 15 12 11 8 16 18 20 18 23 23 17 18 15 15 19 20 26 31 32 35 36
42 41 44 50 51 49 42 33 32 36 36 39 38 36 38 35 34 34 35 35 33 33 33 33 35 32 31 35 33 29 30 28 30 30 25 25 25 26 28 31 29 28 26 25 24 31 24 25 25 20 18 24 25 26 25 26 29 26 24 26 25 24 24 24 20 18 13 19 17 15 12 11 20 27 22 21 18 17 16 18 22 20 21 26 29 31 33 35
43 45 45 45 50 46 39 39 37 35 35 35 35 35 35 34 35 35 35 35 33 33 33 33 34 34 33 34 33 32 32 29 28 29 28 26 26 29 30 29 30 27 28 30 33 32 27 26 25 21 19 18 18 19 20 22 26 26 25 24 24 23 20 18 14 13 13 18 19 15 13 20 21 18 18 19 21 18 17 18 21 24 22 25 28 30 32 35
40 32 38 41 44 45 42 41 39 37 36 35 33 34 34 33 34 36 36 34 32 33 33 34 34 35 32 31 32 31 30 31 28 27 25 24 26 27 29 30 29 29 32 34 33 28 23 27 25 24 22 21 20 23 27 28 26 24 26 25 25 26 22 21 21 16 14 18 17 17 17 11 10 13 15 15 20 16 14 16 16 20 22 24 25 27 31 33
41 34 34 32 41 41 40 40 38 38 35 37 32 34 32 33 33 34 37 33 33 32 31 32 32 31 30 31 30 29 29 29 29 28 26 25 27 28 29 30 30 31 35 33 31 28 27 24 25 25 24 23 25 25 27 27 25 26 26 24 26 25 24 22 19 16 18 18 13 17 20 17 15 15 14 15 17 18 17 15 14 16 20 22 25 25 32 31
35 36 38 40 35 32 35 36 38 38 39 38 35 35 33 33 33 32 34 34 34 29 29 30 32 31 30 30 30 28 29 28 28 26 28 27 28 28 30 30 30 33 31 28 30 25 24 23 26 25 24 23 25 26 28 27 26 26 26 25 25 25 24 23 22 20 20 17 13 20 19 18 16 15 15 17 16 16 15 14 15 17 20 24 25 25 27 29
38 39 39 42 35 39 38 37 37 38 37 37 36 35 32 32 32 33 33 30 30 28 29 26 29 29 30 30 29 28 28 26 25 27 27 27 26 27 26 27 30 32 28 27 27 26 24 23 25 24 23 23 25 27 28 25 25 26 26 26 25 25 24 23 22 22 21 18 19 22 21 19 18 15 16 16 18 18 16 20 23 20 21 24 26 27 29 30
36 37 33 38 38 40 38 36 37 37 36 38 32 34 32 32 32 32 33 30 27 27 29 27 28 29 29 30 29 27 28 28 27 25 27 27 27 25 25 25 26 28 27 26 26 26 23 21 28 24 20 19 25 27 27 26 25 24 26 26 25 25 24 24 23 23 24 22 21 22 22 22 23 23 19 21 24 25 19 17 16 19 23 25 27 28 31 32
37 38 39 37 33 37 38 36 35 35 34 36 33 32 31 30 30 31 30 31 28 26 27 26 28 28 29 29 28 28 29 29 28 27 28 27 25 26 24 25 27 27 27 26 24 24 24 19 23 23 21 16 20 26 24 24 23 23 24 25 25 24 23 23 23 23 21 21 21 22 21 19 21 22 22 21 19 18 17 17 18 21 22 26 23 25 27 29
37 39 40 39 33 37 37 37 35 35 32 34 33 31 30 28 29 31 27 29 29 29 27 27 28 27 27 28 27 28 29 29 29 29 29 28 27 27 29 31 30 27 27 26 27 26 23 21 20 19 20 17 20 25 23 23 22 20 23 24 25 25 24 24 24 25 23 22 21 21 18 22 20 21 18 19 20 19 19 18 19 20 22 25 25 23 24 26